TimeEDT,TemperatureF,Dew PointF,Humidity,Sea Level PressureIn,VisibilityMPH,Wind Direction,Wind SpeedMPH,Gust SpeedMPH,PrecipitationIn,Events,Conditions,WindDirDegrees,DateUTC
12:15 AM,39.2,28.4,65,30.09,10.0,Calm,Calm,-,N/A,,Clear,0,2011-10-30 04:15:00
12:35 AM,35.6,32.0,87,30.09,10.0,Calm,Calm,-,N/A,,Clear,0,2011-10-30 04:35:00
12:55 AM,35.6,33.8,93,30.09,10.0,Calm,Calm,-,N/A,,Clear,0,2011-10-30 04:55:00
1:15 AM,33.8,33.8,100,30.09,10.0,Calm,Calm,-,N/A,,Clear,0,2011-10-30 05:15:00
1:35 AM,-9999,-9999,N/A,-9999,-9999.0,North,-9999.0,-,N/A,,Unknown,0,2011-10-30 05:35:00
1:55 AM,-9999,-9999,N/A,30.10,-9999.0,Calm,Calm,-,N/A,,Unknown,0,2011-10-30 05:55:00
2:15 AM,-9999,-9999,N/A,-9999,-9999.0,North,-9999.0,-,N/A,,Unknown,0,2011-10-30 06:15:00
2:35 AM,-9999,-9999,N/A,-9999,-9999.0,North,-9999.0,-,N/A,,Unknown,0,2011-10-30 06:35:00
2:55 AM,-9999,-9999,N/A,-9999,-9999.0,North,-9999.0,-,N/A,,Unknown,0,2011-10-30 06:55:00
3:15 AM,-9999,-9999,N/A,-9999,-9999.0,North,-9999.0,-,N/A,,Unknown,0,2011-10-30 07:15:00
3:55 AM,-9999,-9999,N/A,-9999,-9999.0,North,-9999.0,-,N/A,,Unknown,0,2011-10-30 07:55:00
4:15 AM,-9999,-9999,N/A,-9999,-9999.0,North,-9999.0,-,N/A,,Unknown,0,2011-10-30 08:15:00
4:35 AM,-9999,-9999,N/A,-9999,-9999.0,North,-9999.0,-,N/A,,Unknown,0,2011-10-30 08:35:00
4:55 AM,-9999,-9999,N/A,-9999,-9999.0,North,-9999.0,-,N/A,,Unknown,0,2011-10-30 08:55:00
5:15 AM,-9999,-9999,N/A,-9999,-9999.0,North,-9999.0,-,N/A,,Unknown,0,2011-10-30 09:15:00
5:35 AM,-9999,-9999,N/A,-9999,-9999.0,North,-9999.0,-,N/A,,Unknown,0,2011-10-30 09:35:00
5:55 AM,-9999,-9999,N/A,-9999,-9999.0,North,-9999.0,-,N/A,,Unknown,0,2011-10-30 09:55:00
6:15 AM,-9999,-9999,N/A,-9999,-9999.0,North,-9999.0,-,N/A,,Unknown,0,2011-10-30 10:15:00
6:35 AM,-9999,-9999,N/A,-9999,-9999.0,North,-9999.0,-,N/A,,Unknown,0,2011-10-30 10:35:00
6:55 AM,-9999,-9999,N/A,-9999,-9999.0,North,-9999.0,-,N/A,,Unknown,0,2011-10-30 10:55:00
7:15 AM,-9999,-9999,N/A,-9999,-9999.0,North,-9999.0,-,N/A,,Unknown,0,2011-10-30 11:15:00
7:35 AM,-9999,-9999,N/A,-9999,-9999.0,North,-9999.0,-,N/A,,Unknown,0,2011-10-30 11:35:00
7:55 AM,-9999,-9999,N/A,-9999,-9999.0,North,-9999.0,-,N/A,,Unknown,0,2011-10-30 11:55:00
8:15 AM,-9999,-9999,N/A,-9999,-9999.0,North,-9999.0,-,N/A,,Unknown,0,2011-10-30 12:15:00
8:35 AM,33.8,32.0,93,30.25,10.0,Calm,Calm,-,N/A,,Unknown,0,2011-10-30 12:35:00
8:55 AM,33.8,33.8,100,30.27,10.0,Calm,Calm,-,N/A,,Clear,0,2011-10-30 12:55:00
9:15 AM,37.4,35.6,93,30.28,10.0,Calm,Calm,-,N/A,,Clear,0,2011-10-30 13:15:00
9:35 AM,39.2,37.4,93,30.29,10.0,Calm,Calm,-,N/A,,Clear,0,2011-10-30 13:35:00
9:55 AM,41.0,35.6,81,30.29,10.0,Calm,Calm,-,N/A,,Clear,0,2011-10-30 13:55:00
10:15 AM,46.4,32.0,57,30.29,10.0,Calm,Calm,-,N/A,,Clear,0,2011-10-30 14:15:00
10:35 AM,48.2,33.8,58,30.29,10.0,Calm,Calm,-,N/A,,Clear,0,2011-10-30 14:35:00
10:55 AM,48.2,32.0,54,30.30,10.0,Calm,Calm,-,N/A,,Clear,0,2011-10-30 14:55:00
11:15 AM,48.2,32.0,54,30.30,10.0,Calm,Calm,-,N/A,,Clear,0,2011-10-30 15:15:00
11:35 AM,51.8,30.2,44,30.30,10.0,East,3.5,-,N/A,,Clear,80,2011-10-30 15:35:00
11:55 AM,51.8,32.0,47,30.30,10.0,East,3.5,-,N/A,,Clear,80,2011-10-30 15:55:00
12:15 PM,51.8,30.2,44,30.30,10.0,Calm,Calm,-,N/A,,Clear,0,2011-10-30 16:15:00
12:35 PM,53.6,30.2,41,30.30,10.0,WNW,4.6,-,N/A,,Clear,290,2011-10-30 16:35:00
12:55 PM,53.6,30.2,41,30.29,10.0,NW,3.5,-,N/A,,Clear,310,2011-10-30 16:55:00
1:35 PM,55.4,28.4,36,30.29,10.0,Calm,Calm,-,N/A,,Clear,0,2011-10-30 17:35:00
1:55 PM,57.2,28.4,33,30.27,10.0,SE,4.6,-,N/A,,Clear,140,2011-10-30 17:55:00
2:15 PM,57.2,26.6,31,30.27,10.0,Calm,Calm,-,N/A,,Clear,0,2011-10-30 18:15:00
2:35 PM,55.4,26.6,33,30.26,10.0,Calm,Calm,-,N/A,,Clear,0,2011-10-30 18:35:00
3:15 PM,57.2,26.6,31,30.26,10.0,NE,4.6,-,N/A,,Clear,40,2011-10-30 19:15:00
3:35 PM,57.2,19.4,23,30.26,10.0,Calm,Calm,-,N/A,,Clear,0,2011-10-30 19:35:00
3:55 PM,55.4,21.2,26,30.27,10.0,Calm,Calm,-,N/A,,Clear,0,2011-10-30 19:55:00
4:35 PM,55.4,21.2,26,30.26,10.0,Calm,Calm,-,N/A,,Clear,0,2011-10-30 20:35:00
4:55 PM,55.4,23.0,29,30.26,10.0,Calm,Calm,-,N/A,,Clear,0,2011-10-30 20:55:00
5:15 PM,57.2,24.8,29,30.26,10.0,Calm,Calm,-,N/A,,Clear,0,2011-10-30 21:15:00
5:35 PM,55.4,26.6,33,30.27,10.0,Calm,Calm,-,N/A,,Clear,0,2011-10-30 21:35:00
5:55 PM,50.0,33.8,54,30.27,10.0,Calm,Calm,-,N/A,,Clear,0,2011-10-30 21:55:00
6:15 PM,48.2,30.2,50,30.28,10.0,Calm,Calm,-,N/A,,Clear,0,2011-10-30 22:15:00
6:35 PM,48.2,30.2,50,30.28,10.0,Calm,Calm,-,N/A,,Clear,0,2011-10-30 22:35:00
7:15 PM,46.4,32.0,57,30.29,10.0,Calm,Calm,-,N/A,,Clear,0,2011-10-30 23:15:00
7:35 PM,42.8,33.8,70,30.29,10.0,Calm,Calm,-,N/A,,Clear,0,2011-10-30 23:35:00
7:55 PM,46.4,30.2,53,30.29,10.0,Calm,Calm,-,N/A,,Clear,0,2011-10-30 23:55:00
8:15 PM,42.8,33.8,70,30.29,10.0,Calm,Calm,-,N/A,,Clear,0,2011-10-31 00:15:00
8:35 PM,42.8,32.0,66,30.30,10.0,Calm,Calm,-,N/A,,Clear,0,2011-10-31 00:35:00
8:55 PM,41.0,32.0,70,30.31,10.0,Calm,Calm,-,N/A,,Clear,0,2011-10-31 00:55:00
9:15 PM,42.8,30.2,61,30.32,10.0,Calm,Calm,-,N/A,,Clear,0,2011-10-31 01:15:00
9:35 PM,41.0,32.0,70,30.32,10.0,Calm,Calm,-,N/A,,Clear,0,2011-10-31 01:35:00
9:55 PM,39.2,33.8,81,30.33,10.0,Calm,Calm,-,N/A,,Clear,0,2011-10-31 01:55:00
10:15 PM,39.2,33.8,81,30.33,10.0,Calm,Calm,-,N/A,,Clear,0,2011-10-31 02:15:00
10:35 PM,39.2,35.6,87,30.34,10.0,Calm,Calm,-,N/A,,Clear,0,2011-10-31 02:35:00
10:55 PM,37.4,35.6,93,30.34,10.0,Calm,Calm,-,N/A,,Clear,0,2011-10-31 02:55:00
11:15 PM,35.6,35.6,100,30.34,10.0,Calm,Calm,-,N/A,,Clear,0,2011-10-31 03:15:00
11:35 PM,35.6,35.6,100,30.34,10.0,Calm,Calm,-,N/A,,Clear,0,2011-10-31 03:35:00
11:55 PM,35.6,33.8,93,30.33,10.0,Calm,Calm,-,N/A,,Clear,0,2011-10-31 03:55:00